Year,Month,Day,Hour,Minute,Value (Times are PST for temperature in C)
2016,06,20,00,00,13.10
2016,06,20,00,01,13.10
2016,06,20,00,02,13.10
2016,06,20,00,03,13.10
2016,06,20,00,04,13.10
2016,06,20,00,05,13.00
2016,06,20,00,06,13.00
2016,06,20,00,07,13.00
2016,06,20,00,08,13.00
2016,06,20,00,09,13.00
2016,06,20,00,10,13.00
2016,06,20,00,11,13.00
2016,06,20,00,12,12.90
2016,06,20,00,13,12.90
2016,06,20,00,14,12.90
2016,06,20,00,15,12.90
2016,06,20,00,16,12.90
2016,06,20,00,17,12.80
2016,06,20,00,18,12.80
2016,06,20,00,19,12.80
2016,06,20,00,20,12.80
2016,06,20,00,21,12.80
2016,06,20,00,22,12.80
2016,06,20,00,23,12.80
2016,06,20,00,24,12.70
2016,06,20,00,25,12.70
2016,06,20,00,26,12.70
2016,06,20,00,27,12.70
2016,06,20,00,28,12.60
2016,06,20,00,29,12.60
2016,06,20,00,30,12.60
2016,06,20,00,31,12.60
2016,06,20,00,32,12.50
2016,06,20,00,33,12.50
2016,06,20,00,34,12.50
2016,06,20,00,35,12.40
2016,06,20,00,36,12.40
2016,06,20,00,37,12.40
2016,06,20,00,38,12.30
2016,06,20,00,39,12.30
2016,06,20,00,40,12.30
2016,06,20,00,41,12.30
2016,06,20,00,42,12.30
2016,06,20,00,43,12.30
2016,06,20,00,44,12.30
2016,06,20,00,45,12.20
2016,06,20,00,46,12.20
2016,06,20,00,47,12.20
2016,06,20,00,48,12.20
2016,06,20,00,49,12.10
2016,06,20,00,50,12.10
2016,06,20,00,51,12.10
2016,06,20,00,52,12.10
2016,06,20,00,53,12.00
2016,06,20,00,54,12.00
2016,06,20,00,55,12.00
2016,06,20,00,56,12.00
2016,06,20,00,57,12.00
2016,06,20,00,58,12.00
2016,06,20,00,59,11.90
2016,06,20,01,00,11.90
2016,06,20,01,01,11.90
2016,06,20,01,02,11.90
2016,06,20,01,03,11.90
2016,06,20,01,04,11.90
2016,06,20,01,05,11.90
2016,06,20,01,06,11.90
2016,06,20,01,07,11.90
2016,06,20,01,08,11.90
2016,06,20,01,09,11.90
2016,06,20,01,10,11.90
2016,06,20,01,11,11.90
2016,06,20,01,12,11.90
2016,06,20,01,13,11.90
2016,06,20,01,14,11.90
2016,06,20,01,15,11.90
2016,06,20,01,16,11.90
2016,06,20,01,17,11.90
2016,06,20,01,18,11.90
2016,06,20,01,19,11.80
2016,06,20,01,20,11.80
2016,06,20,01,21,11.80
2016,06,20,01,22,11.80
2016,06,20,01,23,11.80
2016,06,20,01,24,11.80
2016,06,20,01,25,11.80
2016,06,20,01,26,11.80
2016,06,20,01,27,11.80
2016,06,20,01,28,11.70
2016,06,20,01,29,11.70
2016,06,20,01,30,11.70
2016,06,20,01,31,11.70
2016,06,20,01,32,11.70
2016,06,20,01,33,11.70
2016,06,20,01,34,11.60
2016,06,20,01,35,11.60
2016,06,20,01,36,11.60
2016,06,20,01,37,11.60
2016,06,20,01,38,11.60
2016,06,20,01,39,11.60
2016,06,20,01,40,11.60
2016,06,20,01,41,11.60
2016,06,20,01,42,11.60
2016,06,20,01,43,11.60
2016,06,20,01,44,11.60
2016,06,20,01,45,11.60
2016,06,20,01,46,11.60
2016,06,20,01,47,11.60
2016,06,20,01,48,11.60
2016,06,20,01,49,11.60
2016,06,20,01,50,11.60
2016,06,20,01,51,11.60
2016,06,20,01,52,11.60
2016,06,20,01,53,11.60
2016,06,20,01,54,11.60
2016,06,20,01,55,11.50
2016,06,20,01,56,11.40
2016,06,20,01,57,11.40
2016,06,20,01,58,11.40
2016,06,20,01,59,11.40
2016,06,20,02,00,11.40
2016,06,20,02,01,11.40
2016,06,20,02,02,11.40
2016,06,20,02,03,11.40
2016,06,20,02,04,11.40
2016,06,20,02,05,11.40
2016,06,20,02,06,11.40
2016,06,20,02,07,11.40
2016,06,20,02,08,11.40
2016,06,20,02,09,11.40
2016,06,20,02,10,11.40
2016,06,20,02,11,11.40
2016,06,20,02,12,11.40
2016,06,20,02,13,11.40
2016,06,20,02,14,11.40
2016,06,20,02,15,11.40
2016,06,20,02,16,11.40
2016,06,20,02,17,11.40
2016,06,20,02,18,11.40
2016,06,20,02,19,11.40
2016,06,20,02,20,11.40
2016,06,20,02,21,11.40
2016,06,20,02,22,11.40
2016,06,20,02,23,11.40
2016,06,20,02,24,11.40
2016,06,20,02,25,11.40
2016,06,20,02,26,11.40
2016,06,20,02,27,11.40
2016,06,20,02,28,11.40
2016,06,20,02,29,11.40
2016,06,20,02,30,11.40
2016,06,20,02,31,11.40
2016,06,20,02,32,11.40
2016,06,20,02,33,11.40
2016,06,20,02,34,11.40
2016,06,20,02,35,11.40
2016,06,20,02,36,11.40
2016,06,20,02,37,11.40
2016,06,20,02,38,11.40
2016,06,20,02,39,11.40
2016,06,20,02,40,11.40
2016,06,20,02,41,11.40
2016,06,20,02,42,11.40
2016,06,20,02,43,11.40
2016,06,20,02,44,11.40
2016,06,20,02,45,11.40
2016,06,20,02,46,11.40
2016,06,20,02,47,11.40
2016,06,20,02,48,11.40
2016,06,20,02,49,11.40
2016,06,20,02,50,11.40
2016,06,20,02,51,11.40
2016,06,20,02,52,11.40
2016,06,20,02,53,11.40
2016,06,20,02,54,11.40
2016,06,20,02,55,11.40
2016,06,20,02,56,11.40
2016,06,20,02,57,11.40
2016,06,20,02,58,11.40
2016,06,20,02,59,11.30
2016,06,20,03,00,11.30
2016,06,20,03,01,11.30
2016,06,20,03,02,11.30
2016,06,20,03,03,11.30
2016,06,20,03,04,11.30
2016,06,20,03,05,11.20
2016,06,20,03,06,11.20
2016,06,20,03,07,11.20
2016,06,20,03,08,11.20
2016,06,20,03,09,11.20
2016,06,20,03,10,11.20
2016,06,20,03,11,11.20
2016,06,20,03,12,11.10
2016,06,20,03,13,11.10
2016,06,20,03,14,11.10
2016,06,20,03,15,11.10
2016,06,20,03,16,11.10
2016,06,20,03,17,11.10
2016,06,20,03,18,11.10
2016,06,20,03,19,11.10
2016,06,20,03,20,11.10
2016,06,20,03,21,11.10
2016,06,20,03,22,11.10
2016,06,20,03,23,11.10
2016,06,20,03,24,11.10
2016,06,20,03,25,11.10
2016,06,20,03,26,11.10
2016,06,20,03,27,11.10
2016,06,20,03,28,11.10
2016,06,20,03,29,11.10
2016,06,20,03,30,11.10
2016,06,20,03,31,11.10
2016,06,20,03,32,11.10
2016,06,20,03,33,11.10
2016,06,20,03,34,11.10
2016,06,20,03,35,11.10
2016,06,20,03,36,11.00
2016,06,20,03,37,11.10
2016,06,20,03,38,11.10
2016,06,20,03,39,11.10
2016,06,20,03,40,11.10
2016,06,20,03,41,11.10
2016,06,20,03,42,11.10
2016,06,20,03,43,11.10
2016,06,20,03,44,11.10
2016,06,20,03,45,11.10
2016,06,20,03,46,11.10
2016,06,20,03,47,11.10
2016,06,20,03,48,11.10
2016,06,20,03,49,11.10
2016,06,20,03,50,11.10
2016,06,20,03,51,11.10
2016,06,20,03,52,11.10
2016,06,20,03,53,11.10
2016,06,20,03,54,11.10
2016,06,20,03,55,11.10
2016,06,20,03,56,11.10
2016,06,20,03,57,11.10
2016,06,20,03,58,11.10
2016,06,20,03,59,11.10
2016,06,20,04,00,11.10
2016,06,20,04,01,11.10
2016,06,20,04,02,11.10
2016,06,20,04,03,11.10
2016,06,20,04,04,11.10
2016,06,20,04,05,11.10
2016,06,20,04,06,11.10
2016,06,20,04,07,10.90
2016,06,20,04,08,10.90
2016,06,20,04,09,10.90
2016,06,20,04,10,10.90
2016,06,20,04,11,10.90
2016,06,20,04,12,10.90
2016,06,20,04,13,10.90
2016,06,20,04,14,10.90
2016,06,20,04,15,10.90
2016,06,20,04,16,10.90
2016,06,20,04,17,10.90
2016,06,20,04,18,10.90
2016,06,20,04,19,10.90
2016,06,20,04,20,10.90
2016,06,20,04,21,10.90
2016,06,20,04,22,10.90
2016,06,20,04,23,10.90
2016,06,20,04,24,10.90
2016,06,20,04,25,10.90
2016,06,20,04,26,10.90
2016,06,20,04,27,10.90
2016,06,20,04,28,10.90
2016,06,20,04,29,10.90
2016,06,20,04,30,10.90
2016,06,20,04,31,10.90
2016,06,20,04,32,10.90
2016,06,20,04,33,10.90
2016,06,20,04,34,10.90
2016,06,20,04,35,10.90
2016,06,20,04,36,10.80
2016,06,20,04,37,10.80
2016,06,20,04,38,10.80
2016,06,20,04,39,10.80
2016,06,20,04,40,10.80
2016,06,20,04,41,10.80
2016,06,20,04,42,10.80
2016,06,20,04,43,10.80
2016,06,20,04,44,10.70
2016,06,20,04,45,10.70
2016,06,20,04,46,10.70
2016,06,20,04,47,10.70
2016,06,20,04,48,10.70
2016,06,20,04,49,10.70
2016,06,20,04,50,10.70
2016,06,20,04,51,10.60
2016,06,20,04,52,10.60
2016,06,20,04,53,10.60
2016,06,20,04,54,10.60
2016,06,20,04,55,10.60
2016,06,20,04,56,10.60
2016,06,20,04,57,10.60
2016,06,20,04,58,10.60
2016,06,20,04,59,10.60
2016,06,20,05,00,10.60
2016,06,20,05,01,10.60
2016,06,20,05,02,10.60
2016,06,20,05,03,10.60
2016,06,20,05,04,10.50
2016,06,20,05,05,10.40
2016,06,20,05,06,10.40
2016,06,20,05,07,10.40
2016,06,20,05,08,10.40
2016,06,20,05,09,10.40
2016,06,20,05,10,10.40
2016,06,20,05,11,10.40
2016,06,20,05,12,10.40
2016,06,20,05,13,10.40
2016,06,20,05,14,10.40
2016,06,20,05,15,10.40
2016,06,20,05,16,10.40
2016,06,20,05,17,10.40
2016,06,20,05,18,10.40
2016,06,20,05,19,10.40
2016,06,20,05,20,10.40
2016,06,20,05,21,10.40
2016,06,20,05,22,10.40
2016,06,20,05,23,10.40
2016,06,20,05,24,10.40
2016,06,20,05,25,10.40
2016,06,20,05,26,10.40
2016,06,20,05,27,10.40
2016,06,20,05,28,10.40
2016,06,20,05,29,10.40
2016,06,20,05,30,10.40
2016,06,20,05,31,10.40
2016,06,20,05,32,10.40
2016,06,20,05,33,10.40
2016,06,20,05,34,10.30
2016,06,20,05,35,10.30
2016,06,20,05,36,10.30
2016,06,20,05,37,10.30
2016,06,20,05,38,10.30
2016,06,20,05,39,10.30
2016,06,20,05,40,10.30
2016,06,20,05,41,10.30
2016,06,20,05,42,10.30
2016,06,20,05,43,10.30
2016,06,20,05,44,10.30
2016,06,20,05,45,10.30
2016,06,20,05,46,10.20
2016,06,20,05,47,10.20
2016,06,20,05,48,10.20
2016,06,20,05,49,10.20
2016,06,20,05,50,10.20
2016,06,20,05,51,10.20
2016,06,20,05,52,10.20
2016,06,20,05,53,10.20
2016,06,20,05,54,10.20
2016,06,20,05,55,10.20
2016,06,20,05,56,10.20
2016,06,20,05,57,10.20
2016,06,20,05,58,10.20
2016,06,20,05,59,10.20
2016,06,20,06,00,10.20
2016,06,20,06,01,10.20
2016,06,20,06,02,10.20
2016,06,20,06,03,10.20
2016,06,20,06,04,10.20
2016,06,20,06,05,10.20
2016,06,20,06,06,10.30
2016,06,20,06,07,10.30
2016,06,20,06,08,10.30
2016,06,20,06,09,10.40
2016,06,20,06,10,10.40
2016,06,20,06,11,10.40
2016,06,20,06,12,10.40
2016,06,20,06,13,10.40
2016,06,20,06,14,10.40
2016,06,20,06,15,10.40
2016,06,20,06,16,10.50
2016,06,20,06,17,10.60
2016,06,20,06,18,10.60
2016,06,20,06,19,10.60
2016,06,20,06,20,10.60
2016,06,20,06,21,10.60
2016,06,20,06,22,10.60
2016,06,20,06,23,10.60
2016,06,20,06,24,10.60
2016,06,20,06,25,10.60
2016,06,20,06,26,10.60
2016,06,20,06,27,10.60
2016,06,20,06,28,10.60
2016,06,20,06,29,10.60
2016,06,20,06,30,10.60
2016,06,20,06,31,10.60
2016,06,20,06,32,10.60
2016,06,20,06,33,10.70
2016,06,20,06,34,10.70
2016,06,20,06,35,10.70
2016,06,20,06,36,10.70
2016,06,20,06,37,10.70
2016,06,20,06,38,10.70
2016,06,20,06,39,10.70
2016,06,20,06,40,10.70
2016,06,20,06,41,10.70
2016,06,20,06,42,10.70
2016,06,20,06,43,10.70
2016,06,20,06,44,10.80
2016,06,20,06,45,10.80
2016,06,20,06,46,10.80
2016,06,20,06,47,10.90
2016,06,20,06,48,10.90
2016,06,20,06,49,10.90
2016,06,20,06,50,10.90
2016,06,20,06,51,11.00
2016,06,20,06,52,11.10
2016,06,20,06,53,11.10
2016,06,20,06,54,11.10
2016,06,20,06,55,11.20
2016,06,20,06,56,11.20
2016,06,20,06,57,11.20
2016,06,20,06,58,11.20
2016,06,20,06,59,11.30
2016,06,20,07,00,11.30
2016,06,20,07,01,11.40
2016,06,20,07,02,11.40
2016,06,20,07,03,11.40
2016,06,20,07,04,11.40
2016,06,20,07,05,11.50
2016,06,20,07,06,11.60
2016,06,20,07,07,11.60
2016,06,20,07,08,11.60
2016,06,20,07,09,11.60
2016,06,20,07,10,11.60
2016,06,20,07,11,11.70
2016,06,20,07,12,11.70
2016,06,20,07,13,11.80
2016,06,20,07,14,11.80
2016,06,20,07,15,11.80
2016,06,20,07,16,11.80
2016,06,20,07,17,11.90
2016,06,20,07,18,11.90
2016,06,20,07,19,12.00
2016,06,20,07,20,12.00
2016,06,20,07,21,12.10
2016,06,20,07,22,12.20
2016,06,20,07,23,12.30
2016,06,20,07,24,12.40
2016,06,20,07,25,12.50
2016,06,20,07,26,12.60
2016,06,20,07,27,12.80
2016,06,20,07,28,12.90
2016,06,20,07,29,13.00
2016,06,20,07,30,13.10
2016,06,20,07,31,13.30
2016,06,20,07,32,13.40
2016,06,20,07,33,13.60
2016,06,20,07,34,13.70
2016,06,20,07,35,13.80
2016,06,20,07,36,13.90
2016,06,20,07,37,14.00
2016,06,20,07,38,14.10
2016,06,20,07,39,14.30
2016,06,20,07,40,14.40
2016,06,20,07,41,14.50
2016,06,20,07,42,14.60
2016,06,20,07,43,14.70
2016,06,20,07,44,14.80
2016,06,20,07,45,14.80
2016,06,20,07,46,14.90
2016,06,20,07,47,15.00
2016,06,20,07,48,15.00
2016,06,20,07,49,15.10
2016,06,20,07,50,15.10
2016,06,20,07,51,15.10
2016,06,20,07,52,15.10
2016,06,20,07,53,15.00
2016,06,20,07,54,15.00
2016,06,20,07,55,15.00
2016,06,20,07,56,14.90
2016,06,20,07,57,14.90
2016,06,20,07,58,14.90
2016,06,20,07,59,14.90
2016,06,20,08,00,14.90
2016,06,20,08,01,14.90
2016,06,20,08,02,14.90
2016,06,20,08,03,14.90
2016,06,20,08,04,14.90
2016,06,20,08,05,14.90
2016,06,20,08,06,14.90
2016,06,20,08,07,14.90
2016,06,20,08,08,15.00
2016,06,20,08,09,15.10
2016,06,20,08,10,15.10
2016,06,20,08,11,15.20
2016,06,20,08,12,15.20
2016,06,20,08,13,15.10
2016,06,20,08,14,15.10
2016,06,20,08,15,15.10
2016,06,20,08,16,15.10
2016,06,20,08,17,15.10
2016,06,20,08,18,15.10
2016,06,20,08,19,15.10
2016,06,20,08,20,15.10
2016,06,20,08,21,15.10
2016,06,20,08,22,15.10
2016,06,20,08,23,15.10
2016,06,20,08,24,15.10
2016,06,20,08,25,15.20
2016,06,20,08,26,15.20
2016,06,20,08,27,15.30
2016,06,20,08,28,15.30
2016,06,20,08,29,15.40
2016,06,20,08,30,15.50
2016,06,20,08,31,15.50
2016,06,20,08,32,15.50
2016,06,20,08,33,15.50
2016,06,20,08,34,15.50
2016,06,20,08,35,15.50
2016,06,20,08,36,15.50
2016,06,20,08,37,15.50
2016,06,20,08,38,15.50
2016,06,20,08,39,15.50
2016,06,20,08,40,15.50
2016,06,20,08,41,15.50
2016,06,20,08,42,15.50
2016,06,20,08,43,15.50
2016,06,20,08,44,15.50
2016,06,20,08,45,15.60
2016,06,20,08,46,15.60
2016,06,20,08,47,15.60
2016,06,20,08,48,15.60
2016,06,20,08,49,15.70
2016,06,20,08,50,15.70
2016,06,20,08,51,15.80
2016,06,20,08,52,15.80
2016,06,20,08,53,15.80
2016,06,20,08,54,15.90
2016,06,20,08,55,16.00
2016,06,20,08,56,16.10
2016,06,20,08,57,16.10
2016,06,20,08,58,16.10
2016,06,20,08,59,16.20
2016,06,20,09,00,16.20
2016,06,20,09,01,16.30
2016,06,20,09,02,16.30
2016,06,20,09,03,16.30
2016,06,20,09,04,16.40
2016,06,20,09,05,16.40
2016,06,20,09,06,16.40
2016,06,20,09,07,16.40
2016,06,20,09,08,16.40
2016,06,20,09,09,16.40
2016,06,20,09,10,16.40
2016,06,20,09,11,16.40
2016,06,20,09,12,16.40
2016,06,20,09,13,16.50
2016,06,20,09,14,16.60
2016,06,20,09,15,16.60
2016,06,20,09,16,16.70
2016,06,20,09,17,16.70
2016,06,20,09,18,16.70
2016,06,20,09,19,16.70
2016,06,20,09,20,16.70
2016,06,20,09,21,16.70
2016,06,20,09,22,16.80
2016,06,20,09,23,16.80
2016,06,20,09,24,16.90
2016,06,20,09,25,16.90
2016,06,20,09,26,16.90
2016,06,20,09,27,16.90
2016,06,20,09,28,16.90
2016,06,20,09,29,16.90
2016,06,20,09,30,17.00
2016,06,20,09,31,17.00
2016,06,20,09,32,17.10
2016,06,20,09,33,17.10
2016,06,20,09,34,17.10
2016,06,20,09,35,17.10
2016,06,20,09,36,17.10
2016,06,20,09,37,17.10
2016,06,20,09,38,17.20
2016,06,20,09,39,17.20
2016,06,20,09,40,17.20
2016,06,20,09,41,17.20
2016,06,20,09,42,17.20
2016,06,20,09,43,17.20
2016,06,20,09,44,17.20
2016,06,20,09,45,17.30
2016,06,20,09,46,17.30
2016,06,20,09,47,17.30
2016,06,20,09,48,17.40
2016,06,20,09,49,17.50
2016,06,20,09,50,17.60
2016,06,20,09,51,17.60
2016,06,20,09,52,17.60
2016,06,20,09,53,17.60
2016,06,20,09,54,17.50
2016,06,20,09,55,17.50
2016,06,20,09,56,17.40
2016,06,20,09,57,17.40
2016,06,20,09,58,17.40
2016,06,20,09,59,17.50
2016,06,20,10,00,17.60
2016,06,20,10,01,17.70
2016,06,20,10,02,17.80
2016,06,20,10,03,17.90
2016,06,20,10,04,18.00
2016,06,20,10,05,18.10
2016,06,20,10,06,18.10
2016,06,20,10,07,18.10
2016,06,20,10,08,18.20
2016,06,20,10,09,18.20
2016,06,20,10,10,18.20
2016,06,20,10,11,18.20
2016,06,20,10,12,18.20
2016,06,20,10,13,18.20
2016,06,20,10,14,18.20
2016,06,20,10,15,18.20
2016,06,20,10,16,18.20
2016,06,20,10,17,18.20
2016,06,20,10,18,18.20
2016,06,20,10,19,18.20
2016,06,20,10,20,18.20
2016,06,20,10,21,18.20
2016,06,20,10,22,18.20
2016,06,20,10,23,18.30
2016,06,20,10,24,18.40
2016,06,20,10,25,18.50
2016,06,20,10,26,18.60
2016,06,20,10,27,18.70
2016,06,20,10,28,18.80
2016,06,20,10,29,18.80
2016,06,20,10,30,18.80
2016,06,20,10,31,18.80
2016,06,20,10,32,18.80
2016,06,20,10,33,18.80
2016,06,20,10,34,18.80
2016,06,20,10,35,18.80
2016,06,20,10,36,18.80
2016,06,20,10,37,18.80
2016,06,20,10,38,18.90
2016,06,20,10,39,19.00
2016,06,20,10,40,19.10
2016,06,20,10,41,19.10
2016,06,20,10,42,19.10
2016,06,20,10,43,19.10
2016,06,20,10,44,19.10
2016,06,20,10,45,19.10
2016,06,20,10,46,19.10
2016,06,20,10,47,19.00
2016,06,20,10,48,18.90
2016,06,20,10,49,18.90
2016,06,20,10,50,18.90
2016,06,20,10,51,18.90
2016,06,20,10,52,18.90
2016,06,20,10,53,18.80
2016,06,20,10,54,18.40
2016,06,20,10,55,18.00
2016,06,20,10,56,17.70
2016,06,20,10,57,17.50
2016,06,20,10,58,17.30
2016,06,20,10,59,17.00
2016,06,20,11,00,17.00
2016,06,20,11,01,17.00
2016,06,20,11,02,17.00
2016,06,20,11,03,17.00
2016,06,20,11,04,17.20
2016,06,20,11,05,17.30
2016,06,20,11,06,17.20
2016,06,20,11,07,17.20
2016,06,20,11,08,17.30
2016,06,20,11,09,17.30
2016,06,20,11,10,17.30
2016,06,20,11,11,17.30
2016,06,20,11,12,17.40
2016,06,20,11,13,17.40
2016,06,20,11,14,17.30
2016,06,20,11,15,17.10
2016,06,20,11,16,16.90
2016,06,20,11,17,16.80
2016,06,20,11,18,16.50
2016,06,20,11,19,16.30
2016,06,20,11,20,16.10
2016,06,20,11,21,16.10
2016,06,20,11,22,16.10
2016,06,20,11,23,16.10
2016,06,20,11,24,16.10
2016,06,20,11,25,16.10
2016,06,20,11,26,16.10
2016,06,20,11,27,16.10
2016,06,20,11,28,16.00
2016,06,20,11,29,15.90
2016,06,20,11,30,15.90
2016,06,20,11,31,16.00
2016,06,20,11,32,16.10
2016,06,20,11,33,16.10
2016,06,20,11,34,16.10
2016,06,20,11,35,16.10
2016,06,20,11,36,16.00
2016,06,20,11,37,16.00
2016,06,20,11,38,16.10
2016,06,20,11,39,16.10
2016,06,20,11,40,16.10
2016,06,20,11,41,16.10
2016,06,20,11,42,16.10
2016,06,20,11,43,16.20
2016,06,20,11,44,16.30
2016,06,20,11,45,16.40
2016,06,20,11,46,16.40
2016,06,20,11,47,16.50
2016,06,20,11,48,16.60
2016,06,20,11,49,16.60
2016,06,20,11,50,16.60
2016,06,20,11,51,16.60
2016,06,20,11,52,16.60
2016,06,20,11,53,16.60
2016,06,20,11,54,16.70
2016,06,20,11,55,16.70
2016,06,20,11,56,16.60
2016,06,20,11,57,16.60
2016,06,20,11,58,16.70
2016,06,20,11,59,16.70
2016,06,20,12,00,16.70
2016,06,20,12,01,16.70
2016,06,20,12,02,16.70
2016,06,20,12,03,16.70
2016,06,20,12,04,16.60
2016,06,20,12,05,16.60
2016,06,20,12,06,16.40
2016,06,20,12,07,16.40
2016,06,20,12,08,16.40
2016,06,20,12,09,16.50
2016,06,20,12,10,16.50
2016,06,20,12,11,16.40
2016,06,20,12,12,16.30
2016,06,20,12,13,16.20
2016,06,20,12,14,16.20
2016,06,20,12,15,16.20
2016,06,20,12,16,16.10
2016,06,20,12,17,16.20
2016,06,20,12,18,16.30
2016,06,20,12,19,16.30
2016,06,20,12,20,16.20
2016,06,20,12,21,16.30
2016,06,20,12,22,16.30
2016,06,20,12,23,16.30
2016,06,20,12,24,16.30
2016,06,20,12,25,16.30
2016,06,20,12,26,16.40
2016,06,20,12,27,16.40
2016,06,20,12,28,16.40
2016,06,20,12,29,16.50
2016,06,20,12,30,16.60
2016,06,20,12,31,16.60
2016,06,20,12,32,16.50
2016,06,20,12,33,16.40
2016,06,20,12,34,16.20
2016,06,20,12,35,16.10
2016,06,20,12,36,16.10
2016,06,20,12,37,16.10
2016,06,20,12,38,16.10
2016,06,20,12,39,16.10
2016,06,20,12,40,16.20
2016,06,20,12,41,16.30
2016,06,20,12,42,16.30
2016,06,20,12,43,16.30
2016,06,20,12,44,16.40
2016,06,20,12,45,16.40
2016,06,20,12,46,16.40
2016,06,20,12,47,16.40
2016,06,20,12,48,16.40
2016,06,20,12,49,16.40
2016,06,20,12,50,16.40
2016,06,20,12,51,16.40
2016,06,20,12,52,16.40
2016,06,20,12,53,16.40
2016,06,20,12,54,16.40
2016,06,20,12,55,16.50
2016,06,20,12,56,16.60
2016,06,20,12,57,16.70
2016,06,20,12,58,16.70
2016,06,20,12,59,16.60
2016,06,20,13,00,16.50
2016,06,20,13,01,16.40
2016,06,20,13,02,16.40
2016,06,20,13,03,16.40
2016,06,20,13,04,16.60
2016,06,20,13,05,16.60
2016,06,20,13,06,16.70
2016,06,20,13,07,16.70
2016,06,20,13,08,16.70
2016,06,20,13,09,16.60
2016,06,20,13,10,16.50
2016,06,20,13,11,16.60
2016,06,20,13,12,16.60
2016,06,20,13,13,16.60
2016,06,20,13,14,16.60
2016,06,20,13,15,16.60
2016,06,20,13,16,16.50
2016,06,20,13,17,16.40
2016,06,20,13,18,16.40
2016,06,20,13,19,16.30
2016,06,20,13,20,16.30
2016,06,20,13,21,16.20
2016,06,20,13,22,16.20
2016,06,20,13,23,16.20
2016,06,20,13,24,16.20
2016,06,20,13,25,16.20
2016,06,20,13,26,16.20
2016,06,20,13,27,16.30
2016,06,20,13,28,16.40
2016,06,20,13,29,16.40
2016,06,20,13,30,16.40
2016,06,20,13,31,16.40
2016,06,20,13,32,16.50
2016,06,20,13,33,16.60
2016,06,20,13,34,16.60
2016,06,20,13,35,16.60
2016,06,20,13,36,16.50
2016,06,20,13,37,16.40
2016,06,20,13,38,16.40
2016,06,20,13,39,16.40
2016,06,20,13,40,16.40
2016,06,20,13,41,16.50
2016,06,20,13,42,16.60
2016,06,20,13,43,16.60
2016,06,20,13,44,16.60
2016,06,20,13,45,16.60
2016,06,20,13,46,16.70
2016,06,20,13,47,16.80
2016,06,20,13,48,16.90
2016,06,20,13,49,16.90
2016,06,20,13,50,16.80
2016,06,20,13,51,16.90
2016,06,20,13,52,17.00
2016,06,20,13,53,17.00
2016,06,20,13,54,17.10
2016,06,20,13,55,17.10
2016,06,20,13,56,17.10
2016,06,20,13,57,17.10
2016,06,20,13,58,17.10
2016,06,20,13,59,17.20
2016,06,20,14,00,17.30
2016,06,20,14,01,17.40
2016,06,20,14,02,17.40
2016,06,20,14,03,17.50
2016,06,20,14,04,17.60
2016,06,20,14,05,17.50
2016,06,20,14,06,17.50
2016,06,20,14,07,17.50
2016,06,20,14,08,17.30
2016,06,20,14,09,17.30
2016,06,20,14,10,17.40
2016,06,20,14,11,17.50
2016,06,20,14,12,17.50
2016,06,20,14,13,17.60
2016,06,20,14,14,17.60
2016,06,20,14,15,17.60
2016,06,20,14,16,17.60
2016,06,20,14,17,17.60
2016,06,20,14,18,17.60
2016,06,20,14,19,17.60
2016,06,20,14,20,17.70
2016,06,20,14,21,17.80
2016,06,20,14,22,17.90
2016,06,20,14,23,18.10
2016,06,20,14,24,18.20
2016,06,20,14,25,18.20
2016,06,20,14,26,18.30
2016,06,20,14,27,18.30
2016,06,20,14,28,18.40
2016,06,20,14,29,18.50
2016,06,20,14,30,18.40
2016,06,20,14,31,18.50
2016,06,20,14,32,18.50
2016,06,20,14,33,18.50
2016,06,20,14,34,18.40
2016,06,20,14,35,18.30
2016,06,20,14,36,18.30
2016,06,20,14,37,18.30
2016,06,20,14,38,18.20
2016,06,20,14,39,18.30
2016,06,20,14,40,18.40
2016,06,20,14,41,18.50
2016,06,20,14,42,18.60
2016,06,20,14,43,18.70
2016,06,20,14,44,18.80
2016,06,20,14,45,18.90
2016,06,20,14,46,18.90
2016,06,20,14,47,18.90
2016,06,20,14,48,18.90
2016,06,20,14,49,18.90
2016,06,20,14,50,19.00
2016,06,20,14,51,19.10
2016,06,20,14,52,19.20
2016,06,20,14,53,19.20
2016,06,20,14,54,19.20
2016,06,20,14,55,19.30
2016,06,20,14,56,19.30
2016,06,20,14,57,19.30
2016,06,20,14,58,19.40
2016,06,20,14,59,19.50
2016,06,20,15,00,19.50
2016,06,20,15,01,19.60
2016,06,20,15,02,19.50
2016,06,20,15,03,19.50
2016,06,20,15,04,19.60
2016,06,20,15,05,19.60
2016,06,20,15,06,19.60
2016,06,20,15,07,19.70
2016,06,20,15,08,19.80
2016,06,20,15,09,19.90
2016,06,20,15,10,19.90
2016,06,20,15,11,20.00
2016,06,20,15,12,20.10
2016,06,20,15,13,20.00
2016,06,20,15,14,20.00
2016,06,20,15,15,20.10
2016,06,20,15,16,20.10
2016,06,20,15,17,20.30
2016,06,20,15,18,20.40
2016,06,20,15,19,20.40
2016,06,20,15,20,20.30
2016,06,20,15,21,20.30
2016,06,20,15,22,20.20
2016,06,20,15,23,20.20
2016,06,20,15,24,20.10
2016,06,20,15,25,20.10
2016,06,20,15,26,19.90
2016,06,20,15,27,19.90
2016,06,20,15,28,19.70
2016,06,20,15,29,19.60
2016,06,20,15,30,19.40
2016,06,20,15,31,19.20
2016,06,20,15,32,19.00
2016,06,20,15,33,18.90
2016,06,20,15,34,18.80
2016,06,20,15,35,18.70
2016,06,20,15,36,18.70
2016,06,20,15,37,18.60
2016,06,20,15,38,18.70
2016,06,20,15,39,18.60
2016,06,20,15,40,18.60
2016,06,20,15,41,18.60
2016,06,20,15,42,18.70
2016,06,20,15,43,18.70
2016,06,20,15,44,18.70
2016,06,20,15,45,18.70
2016,06,20,15,46,18.70
2016,06,20,15,47,18.70
2016,06,20,15,48,18.60
2016,06,20,15,49,18.50
2016,06,20,15,50,18.50
2016,06,20,15,51,18.50
2016,06,20,15,52,18.50
2016,06,20,15,53,18.50
2016,06,20,15,54,18.60
2016,06,20,15,55,18.50
2016,06,20,15,56,18.50
2016,06,20,15,57,18.60
2016,06,20,15,58,18.50
2016,06,20,15,59,18.50
2016,06,20,16,00,18.50
2016,06,20,16,01,18.50
2016,06,20,16,02,18.50
2016,06,20,16,03,18.60
2016,06,20,16,04,18.70
2016,06,20,16,05,18.70
2016,06,20,16,06,18.80
2016,06,20,16,07,18.70
2016,06,20,16,08,18.70
2016,06,20,16,09,18.70
2016,06,20,16,10,18.60
2016,06,20,16,11,18.60
2016,06,20,16,12,18.50
2016,06,20,16,13,18.40
2016,06,20,16,14,18.30
2016,06,20,16,15,18.20
2016,06,20,16,16,18.20
2016,06,20,16,17,18.20
2016,06,20,16,18,18.20
2016,06,20,16,19,18.30
2016,06,20,16,20,18.40
2016,06,20,16,21,18.50
2016,06,20,16,22,18.50
2016,06,20,16,23,18.50
2016,06,20,16,24,18.40
2016,06,20,16,25,18.40
2016,06,20,16,26,18.30
2016,06,20,16,27,18.20
2016,06,20,16,28,18.20
2016,06,20,16,29,18.20
2016,06,20,16,30,18.20
2016,06,20,16,31,18.20
2016,06,20,16,32,18.20
2016,06,20,16,33,18.30
2016,06,20,16,34,18.40
2016,06,20,16,35,18.50
2016,06,20,16,36,18.60
2016,06,20,16,37,18.70
2016,06,20,16,38,18.80
2016,06,20,16,39,18.70
2016,06,20,16,40,18.70
2016,06,20,16,41,18.90
2016,06,20,16,42,19.10
2016,06,20,16,43,19.10
2016,06,20,16,44,19.00
2016,06,20,16,45,19.00
2016,06,20,16,46,19.00
2016,06,20,16,47,19.10
2016,06,20,16,48,19.00
2016,06,20,16,49,18.90
2016,06,20,16,50,18.90
2016,06,20,16,51,18.90
2016,06,20,16,52,18.80
2016,06,20,16,53,18.70
2016,06,20,16,54,18.60
2016,06,20,16,55,18.30
2016,06,20,16,56,18.00
2016,06,20,16,57,17.90
2016,06,20,16,58,17.90
2016,06,20,16,59,17.90
2016,06,20,17,00,18.00
2016,06,20,17,01,18.10
2016,06,20,17,02,18.20
2016,06,20,17,03,18.20
2016,06,20,17,04,18.20
2016,06,20,17,05,18.10
2016,06,20,17,06,18.00
2016,06,20,17,07,17.90
2016,06,20,17,08,17.70
2016,06,20,17,09,17.60
2016,06,20,17,10,17.50
2016,06,20,17,11,17.50
2016,06,20,17,12,17.50
2016,06,20,17,13,17.50
2016,06,20,17,14,17.50
2016,06,20,17,15,17.40
2016,06,20,17,16,17.50
2016,06,20,17,17,17.50
2016,06,20,17,18,17.60
2016,06,20,17,19,17.70